CW9688 Weather Reports


Display with metric or nautical units.
time (UTC)temp
F
wind
direction
speed
MPH
gust
MPH
rain 1hr
in
rain 24hr
in
rain mn
in
humidity
%
barometer
mb
20260904013804 82 22 3.0 6.0 0.00 0.13 0.00 24 995.8
20260904013305 82 20 3.0 7.0 0.00 0.13 0.00 25 995.8
20260904012805 83 34 3.0 7.0 0.00 0.13 0.00 23 995.9
20260904011804 84 56 4.0 8.0 0.00 0.13 0.00 23 995.9
20260904011305 84 43 5.0 7.0 0.00 0.13 0.00 23 996.0
20260904005805 86 40 5.0 12.0 0.00 0.13 0.00 22 995.9
20260904004305 86 49 5.0 10.0 0.00 0.13 0.00 22 996.1
20260904003804 87 65 4.0 10.0 0.00 0.13 0.00 22 996.0
20260904003304 88 56 5.0 10.0 0.00 0.13 0.00 21 996.0
20260904002306 88 70 9.0 15.0 0.00 0.13 0.00 21 996.0
20260904000804 88 79 6.0 13.0 0.00 0.13 0.00 21 995.9
20260904000304 88 80 8.0 14.0 0.00 0.13 0.00 20 995.9
20260903234305 89 89 7.0 15.0 0.00 0.13 0.00 21 996.0
20260903233805 89 76 7.0 13.0 0.00 0.13 0.00 21 995.9
20260903233305 89 103 9.0 15.0 0.00 0.13 0.00 20 995.9
20260903232805 89 99 9.0 12.0 0.00 0.13 0.00 20 996.0
20260903231805 90 100 7.0 13.0 0.00 0.13 0.00 21 995.9
20260903231305 90 106 9.0 15.0 0.00 0.13 0.00 19 995.9
20260903230804 91 74 5.0 13.0 0.00 0.13 0.00 20 995.9
20260903225306 92 71 9.0 15.0 0.00 0.13 0.00 18 995.9
20260903224805 92 118 6.0 12.0 0.00 0.13 0.00 19 995.9
20260903220804 90 92 3.0 6.0 0.00 0.13 0.00 19 996.2
20260903215804 90 26 3.0 12.0 0.00 0.13 0.00 19 996.3
20260903215306 90 61 5.0 13.0 0.00 0.13 0.00 19 996.4
20260903214304 90 347 4.0 7.0 0.00 0.13 0.00 18 996.5
20260903213305 90 70 6.0 12.0 0.00 0.13 0.00 19 996.6
20260903212804 90 39 7.0 13.0 0.00 0.13 0.00 21 996.6
20260903211804 89 60 5.0 12.0 0.00 0.13 0.00 20 996.7
20260903211305 89 54 9.0 15.0 0.00 0.13 0.00 20 997.0
20260903210305 88 56 5.0 13.0 0.00 0.13 0.00 21 997.1
20260903205805 88 46 5.0 8.0 0.00 0.13 0.00 21 997.2
20260903204804 89 104 6.0 12.0 0.00 0.13 0.00 20 997.4
20260903204305 90 70 7.0 14.0 0.00 0.13 0.00 21 997.5
20260903203805 88 86 5.0 13.0 0.00 0.13 0.00 21 997.4
20260903202306 89 18 5.0 9.0 0.00 0.13 0.00 22 997.5
20260903201805 89 130 5.0 10.0 0.00 0.13 0.00 19 997.6
20260903201304 88 65 5.0 12.0 0.00 0.13 0.00 18 997.8
20260903200805 88 83 6.0 13.0 0.00 0.13 0.00 21 997.8
20260903195804 88 29 6.0 12.0 0.00 0.13 0.00 21 998.0
20260903194804 87 48 6.0 10.0 0.00 0.13 0.00 22 998.2
20260903194304 87 28 3.0 13.0 0.00 0.13 0.00 21 998.2
20260903193305 87 72 9.0 15.0 0.00 0.13 0.00 22 998.2
20260903192804 87 87 6.0 12.0 0.00 0.13 0.00 23 998.3
20260903191304 86 199 2.0 10.0 0.00 0.13 0.00 25 998.5
20260903190304 87 106 6.0 12.0 0.00 0.13 0.00 22 998.6
20260903185306 87 78 4.0 12.0 0.00 0.13 0.00 23 998.7
20260903184805 87 111 5.0 9.0 0.00 0.13 0.00 25 998.7
20260903184304 87 83 1.0 3.0 0.00 0.13 0.00 25 998.9
20260903183805 86 119 6.0 12.0 0.00 0.13 0.00 24 999.0
20260903182306 85 85 6.0 8.0 0.00 0.13 0.00 24 999.4
20260903181804 86 100 6.0 12.0 0.00 0.13 0.00 25 999.6
20260903181304 86 105 5.0 9.0 0.00 0.13 0.00 27 999.6
20260903180805 84 94 4.0 9.0 0.00 0.13 0.00 28 999.7
20260903175805 84 28 4.0 6.0 0.00 0.13 0.00 24 999.8
20260903174305 83 42 3.0 8.0 0.00 0.13 0.00 26 1000.0
20260903173804 83 58 4.0 8.0 0.00 0.13 0.00 28 1000.1
20260903173304 83 89 5.0 7.0 0.00 0.13 0.00 28 1000.1
20260903172804 82 61 3.0 7.0 0.00 0.13 0.00 28 1000.2
20260903172306 83 92 6.0 12.0 0.00 0.13 0.00 29 1000.2
20260903171805 82 114 7.0 9.0 0.00 0.13 0.00 29 1000.2
20260903151304 71 358 5.0 7.0 0.00 0.13 0.00 48 1000.2
20260903150304 70 183 4.0 6.0 0.00 0.13 0.00 51 1011.2
20260903145804 70 163 3.0 6.0 0.00 0.13 0.00 50 1011.2
20260903144804 69 164 3.0 6.0 0.00 0.13 0.00 54 1011.2
20260903143804 67 175 3.0 7.0 0.00 0.13 0.00 56 1011.2
20260903143304 67 179 4.0 9.0 0.00 0.13 0.00 57 1011.2
20260903142804 66 181 4.0 7.0 0.00 0.13 0.00 58 1011.2
20260903142306 66 154 3.0 8.0 0.00 0.13 0.00 58 1011.2
20260903141304 65 162 3.0 7.0 0.00 0.13 0.00 63 1011.2
20260903140304 64 99 1.0 3.0 0.00 0.13 0.00 66 1011.2
20260903134305 62 181 3.0 6.0 0.00 0.13 0.00 69 1011.2
20260903133804 62 168 2.0 3.0 0.00 0.13 0.00 71 1011.2
20260903132306 60 140 2.0 6.0 0.00 0.13 0.00 74 1011.2
20260903131304 60 173 2.0 5.0 0.00 0.13 0.00 74 1011.2
20260903130304 59 201 0.0 1.0 0.00 0.13 0.00 74 1011.2
20260903124804 59 211 2.0 5.0 0.00 0.13 0.00 76 1011.2
20260903122305 57 196 2.0 3.0 0.00 0.13 0.00 84 1011.2
20260903121804 56 214 2.0 3.0 0.00 0.13 0.00 84 1011.2
20260903120804 57 176 2.0 2.0 0.00 0.13 0.00 84 1011.2
20260903114805 57 211 0.0 2.0 0.00 0.13 0.00 84 1011.2
20260903113804 59 165 1.0 3.0 0.00 0.13 0.00 81 1011.2
20260903113304 58 182 2.0 3.0 0.00 0.13 0.00 83 1011.2
20260903111804 58 211 2.0 3.0 0.00 0.13 0.00 86 1011.2
20260903111304 57 213 2.0 3.0 0.00 0.13 0.00 87 1011.2
20260903110304 57 193 0.0 0.0 0.00 0.13 0.00 88 1011.2
20260903104305 57 193 0.0 1.0 0.00 0.13 0.00 87 1011.2
20260903103304 58 193 2.0 3.0 0.00 0.13 0.00 87 1011.2
20260903102306 58 193 0.0 1.0 0.00 0.13 0.00 87 1011.2
20260903100804 59 176 0.0 2.0 0.00 0.13 0.00 86 1011.2
20260903100304 59 176 3.0 3.0 0.00 0.13 0.00 88 1011.2
20260903095804 58 176 0.0 0.0 0.00 0.13 0.00 87 1011.2
20260903095306 58 176 0.0 0.0 0.00 0.13 0.00 88 1011.2
20260903094805 58 176 0.0 0.0 0.00 0.13 0.00 86 1011.2
20260903094304 59 176 0.0 0.0 0.00 0.13 0.00 86 1011.2
20260903093305 59 176 0.0 0.0 0.00 0.13 0.00 86 1011.2
20260903092306 60 176 0.0 1.0 0.00 0.13 0.00 84 1011.2
20260903091304 60 180 1.0 2.0 0.00 0.13 0.00 86 1011.2
20260903090304 61 180 0.0 1.0 0.00 0.13 0.00 84 1011.2
20260903085804 61 180 0.0 2.0 0.00 0.13 0.00 83 1011.2
20260903084804 61 178 2.0 5.0 0.00 0.13 0.00 83 1011.2
20260903084304 61 182 1.0 3.0 0.00 0.13 0.00 83 1011.2
20260903082804 62 193 1.0 2.0 0.00 0.13 0.00 80 1011.2
20260903082306 62 186 1.0 2.0 0.00 0.13 0.00 79 1011.2
20260903081304 62 179 2.0 5.0 0.00 0.13 0.00 79 1011.2
20260903080804 62 173 2.0 3.0 0.00 0.13 0.00 79 1011.2
20260903080304 62 178 2.0 3.0 0.00 0.13 0.00 80 1011.2
20260903075804 62 156 1.0 2.0 0.00 0.13 0.00 80 1011.2
20260903074804 62 146 3.0 6.0 0.00 0.13 0.00 84 1011.2
20260903073805 62 147 0.0 0.0 0.00 0.13 0.00 86 1011.2
20260903073304 62 147 1.0 2.0 0.00 0.13 0.00 85 1011.2
20260903072804 62 147 0.0 1.0 0.00 0.13 0.00 85 1011.2
20260903070804 62 147 0.0 0.0 0.00 0.13 0.00 87 1011.2
20260903065306 62 147 2.0 2.0 0.00 0.13 0.00 86 1011.2
20260903064805 62 147 0.0 0.0 0.00 0.13 0.00 86 1011.2
20260903064304 62 147 0.0 0.0 0.00 0.13 0.00 86 1011.2
20260903062804 62 130 1.0 2.0 0.00 0.13 0.00 86 1011.2
20260903062306 62 130 1.0 2.0 0.00 0.13 0.00 86 1011.2
20260903061304 62 56 1.0 3.0 0.00 0.13 0.00 87 1011.2
20260903055306 62 156 1.0 2.0 0.00 0.13 0.13 86 1011.2
20260903054804 62 156 0.0 1.0 0.00 0.13 0.13 86 1011.2
20260903054304 63 163 0.0 3.0 0.00 0.13 0.13 84 1011.2
20260903053804 63 143 1.0 3.0 0.00 0.13 0.13 83 1011.2
20260903051304 63 161 3.0 5.0 0.00 0.13 0.13 83 1011.2
20260903050804 63 113 3.0 5.0 0.00 0.13 0.13 83 1011.2
20260903044804 62 213 2.0 3.0 0.00 0.13 0.13 87 1011.2
20260903043804 62 112 2.0 3.0 0.00 0.13 0.13 88 1011.2
20260903042804 62 122 0.0 0.0 0.00 0.13 0.13 87 1011.2
20260903040804 62 30 0.0 0.0 0.09 0.13 0.13 87 1011.2
20260903034804 63 81 3.0 7.0 0.13 0.13 0.13 81 1011.2
20260903032803 62 16 3.0 6.0 0.13 0.13 0.13 85 1013.7
20260903032306 63 56 2.0 5.0 0.13 0.13 0.13 83 1013.7
20260903031804 64 169 5.0 7.0 0.13 0.13 0.13 79 1013.7
20260903031304 65 32 5.0 8.0 0.12 0.12 0.12 75 1013.7
20260903030804 68 185 6.0 10.0 0.04 0.04 0.04 65 1013.7
20260903030304 72 179 6.0 9.0 0.01 0.01 0.01 57 1013.7
20260903024804 73 351 5.0 8.0 0.00 0.00 0.00 46 1013.7
20260903022804 73 350 4.0 12.0 0.00 0.00 0.00 45 1013.7
20260903021804 73 18 7.0 12.0 0.00 0.00 0.00 46 1013.7